User: anonymous   Login
Location: Palau
(42.3086°N, 3.1507°E)
Time: 17:44:36
(UTC+00:00)
Language:

STARLINK-1328 - Orbit

View from above orbital plane
View from above orbital plane
View from above satellite
View from above satellite

Ground track
Ground track

The orbit data is extracted from the following two-line orbital elements,

1 45576C 20025AX  20228.35741899 -.01135907  00000-0 -53707-1 0  2282
2 45576  53.0035 200.4404 0001423  62.7593  84.6820 15.20009975    18
Epoch (UTC): 15 August 2020 08:34:41
Eccentricity: 0.0001423
inclination: 53.0035°
perigee height: 505 km
apogee height: 507 km
right ascension of ascending node: 200.4404°
argument of perigee: 62.7593°
revolutions per day: 15.20009975
mean anomaly at epoch: 84.6820°
orbit number at epoch: 1

The dashed part of the orbit path shows where the satellite is in the earth's shadow,  

DLR